Miscellaneous Local Product
Issued by NWS Hastings, NE

Home | Current Version | Previous Version | Text Only | Print | Product List | Glossary Off
Versions: 1 2 3 4 5 6 7 8 9 10 11 12 13 14 15 16 17 18 19 20 21 22 23 24 25 26 27 28 29 30 31 32 33 34 35 36 37 38 39 40 41 42 43 44 45 46 47 48 49 50

000
AXUS43 KGID 170702
MISGRI

GID CWA HOURLY WEATHER ROUNDUP
NATIONAL WEATHER SERVICE HASTINGS NE
200 AM CDT TUE OCT 17 2017

NOTE: "FAIR" INDICATES FEW OR NO CLOUDS BELOW 12,000 FEET WITH NO
SIGNIFICANT WEATHER AND/OR OBSTRUCTIONS TO VISIBILITY.

...SOUTH CENTRAL NEBRASKA...

CITY           SKY/WX    TMP DP  RH WIND       PRES   REMARKS
GRAND ISLAND   CLOUDY    53  39  59 S10       30.08S
HASTINGS       PTCLDY    52  37  56 S8        30.09F
KEARNEY        CLEAR     49  37  63 S10       30.08F
ORD            CLEAR     39  34  82 CALM      30.05S
YORK           PTCLDY    52  39  62 S10       30.09S
AURORA         PTCLDY    52  38  58 SW9       30.08S
LEXINGTON      CLEAR     42  35  76 W7        30.09S
HOLDREGE       CLEAR     49  37  64 S7        30.08F
HEBRON         PTCLDY    55  40  58 S10G16    30.12F

...NEBRASKA PANHANDLE...

CITY           SKY/WX    TMP DP  RH WIND       PRES   REMARKS
CHADRON        CLEAR     36  26  67 SW5       30.14S WCI  32
ALLIANCE       CLOUDY    31  25  78 W8        30.16F WCI  23
SCOTTSBLUFF    CLOUDY    36  26  67 NW5       30.18F WCI  32
SIDNEY         CLOUDY    36  25  64 NW12      30.20F WCI  28

...WESTERN AND NORTH CENTRAL NEBRASKA...

CITY           SKY/WX    TMP DP  RH WIND       PRES   REMARKS
VALENTINE      CLEAR     39  32  76 W3        30.10S
AINSWORTH      CLEAR     41  36  80 CALM      30.09S
ONEILL         CLEAR     43  40  90 W6        30.06R
BROKEN BOW     CLEAR     42  35  76 CALM      30.07S
IMPERIAL       CLEAR     45  29  53 NW7       30.14F
NORTH PLATTE   CLEAR     37  33  85 NW8       30.12S WCI  31
MCCOOK         CLEAR     47  38  71 W6        30.11S

...EASTERN NEBRASKA...

CITY           SKY/WX    TMP DP  RH WIND       PRES   REMARKS
NORFOLK        CLEAR     52  39  61 SW10      30.04S
SO SIOUX CITY  CLEAR     56  40  55 CALM      30.06R
TEKAMAH        CLEAR     54  32  43 S7        30.08S
COLUMBUS       CLEAR     54  39  57 SW8       30.08S
ALBION         CLEAR     52  38  59 SE3       30.06S
OMAHA EPPLEY   PTCLDY    51  41  68 S12       30.11F
OFFUTT AFB     CLEAR     46  40  82 E5        30.11F
MILLARD        CLEAR     52  42  70 SE6       30.11S
LINCOLN        PTCLDY    57  39  51 S13       30.11F
NEBRASKA CITY  CLOUDY    51  41  68 SW9       30.13F
BEATRICE       PTCLDY    55  41  57 S10       30.13F
FALLS CITY     PTCLDY    51  40  65 S7        30.17S

...NORTHERN KANSAS...

CITY           SKY/WX    TMP DP  RH WIND       PRES   REMARKS
GOODLAND       CLEAR     42  31  64 W6        30.16S
HILL CITY      PTCLDY    52  37  56 W6        30.11F
NORTON         SUNNY     48  34  57 SW7       30.09S
PHILLIPSBURG   CLEAR     54  36  50 S5        30.10F
SMITH CENTER   CLEAR     45  37  76 SE7       30.12F
HAYS           CLEAR     50  37  61 S9        30.13F
RUSSELL        CLEAR     53  40  61 S16       30.12F
CONCORDIA      CLEAR     53  41  63 S14       30.14S
SALINA         PTCLDY    55  42  61 S14       30.17F
TOPEKA         CLOUDY    54  42  64 SW6       30.20F



USA.gov is the U.S. government's official web portal to all federal, state and local government web resources and services.